K6OUA-11 Weather Reports


time (UTC)temp
F
wind
direction
speed
knots
gust
knots
rain 1hr
in
rain 24hr
in
rain mn
in
humidity
%
barometer
mb
20260508170502 60 278 7.0 8.7 0.00 0.00 0.00 87
20260508170300 60 302 5.2 9.6 0.00 0.00 0.00 86
20260508170058 60 279 7.8 9.6 0.00 0.00 0.00 86
20260508165856 60 279 7.8 9.6 0.00 0.00 0.00 87
20260508165654 59 300 3.5 8.7 0.00 0.00 0.00 87
20260508165451 59 277 7.8 8.7 0.00 0.00 0.00 87
20260508165250 59 316 3.5 7.0 0.00 0.00 0.00 86
20260508165049 59 291 5.2 7.0 0.00 0.00 0.00 85
20260508164847 59 274 3.5 7.0 0.00 0.00 0.00 86
20260508164645 59 264 4.3 7.0 0.00 0.00 0.00 88
20260508164442 59 315 1.7 7.0 0.00 0.00 0.00 87
20260508164241 59 265 0.9 7.0 0.00 0.00 0.00 88
20260508163837 59 292 4.3 7.0 0.00 0.00 0.00 89
20260508163635 59 181 0.0 7.0 0.00 0.00 0.00 89
20260508163434 59 243 0.9 7.0 0.00 0.00 0.00 90
20260508163231 59 275 4.3 7.0 0.00 0.00 0.00 90
20260508163030 58 305 4.3 7.0 0.00 0.00 0.00 90
20260508162828 58 284 4.3 7.0 0.00 0.00 0.00 90
20260508162422 58 286 5.2 7.8 0.00 0.00 0.00 91
20260508162220 58 296 4.3 6.1 0.00 0.00 0.00 90
20260508162020 58 281 1.7 6.1 0.00 0.00 0.00 91
20260508161818 58 264 4.3 6.1 0.00 0.00 0.00 91
20260508161617 58 282 3.5 6.1 0.00 0.00 0.00 91
20260508161414 58 275 3.5 6.1 0.00 0.00 0.00 91
20260508161010 58 289 2.6 2.6 0.00 0.00 0.00 93
20260508160606 58 277 1.7 3.5 0.00 0.00 0.00 93
20260508160405 58 270 0.0 3.5 0.00 0.00 0.00 93
20260508160201 58 289 0.0 4.3 0.00 0.00 0.00 93
20260508160001 58 285 1.7 4.3 0.00 0.00 0.00 93
20260508155757 58 296 1.7 5.2 0.00 0.00 0.00 93
20260508155154 58 272 1.7 3.5 0.00 0.00 0.00 94
20260508154951 58 264 2.6 3.5 0.00 0.00 0.00 94
20260508154750 57 201 0.0 1.7 0.00 0.00 0.00 95
20260508154547 57 178 0.9 1.7 0.00 0.00 0.00 95
20260508154344 57 298 0.0 1.7 0.00 0.00 0.00 94
20260508154143 57 309 0.9 3.5 0.00 0.00 0.00 95
20260508153942 57 281 0.0 3.5 0.00 0.00 0.00 95
20260508153740 57 281 0.0 2.6 0.00 0.00 0.00 95
20260508153538 57 281 0.0 2.6 0.00 0.00 0.00 95
20260508153134 57 243 0.0 1.7 0.00 0.00 0.00 95
20260508152933 57 285 0.9 1.7 0.00 0.00 0.00 95
20260508152730 57 300 0.9 1.7 0.00 0.00 0.00 95
20260508152527 56 302 0.9 1.7 0.00 0.00 0.00 95
20260508152327 56 293 0.9 1.7 0.00 0.00 0.00 95
20260508152125 57 274 0.0 2.6 0.00 0.00 0.00 95
20260508151720 56 240 0.0 3.5 0.00 0.00 0.00 95
20260508151116 56 295 1.7 2.6 0.00 0.00 0.00 95
20260508150913 56 251 0.0 2.6 0.00 0.00 0.00 95
20260508150712 56 271 1.7 3.5 0.00 0.00 0.00 95
20260508150510 56 241 0.0 3.5 0.00 0.00 0.00 95
20260508150308 56 278 2.6 0.0 0.00 0.00 0.00 95
20260508150106 56 284 2.6 0.0 0.00 0.00 0.00 95
20260508145904 56 262 0.0 0.0 0.00 0.00 0.00 95
20260508145702 56 262 0.0 0.0 0.00 0.00 0.00 95
20260508145500 56 262 0.0 0.0 0.00 0.00 0.00 95
20260508145259 56 262 0.0 0.0 0.00 0.00 0.00 95
20260508145056 55 262 0.0 0.0 0.00 0.00 0.00 95
20260508144653 55 262 0.0 0.0 0.00 0.00 0.00 95
20260508144450 55 262 0.0 0.0 0.00 0.00 0.00 95
20260508144248 55 262 0.0 0.0 0.00 0.00 0.00 95
20260508144047 55 262 0.0 0.0 0.00 0.00 0.00 94
20260508143643 55 262 0.0 0.9 0.00 0.00 0.00 93
20260508143240 56 262 0.0 0.0 0.00 0.00 0.00 94
20260508143037 56 305 0.0 0.0 0.00 0.00 0.00 95
20260508142836 56 305 0.0 0.0 0.00 0.00 0.00 95
20260508142634 55 305 0.0 0.0 0.00 0.00 0.00 95
20260508142432 55 305 0.0 0.0 0.00 0.00 0.00 95
20260508142028 55 305 0.0 0.0 0.00 0.00 0.00 95
20260508141826 54 305 0.0 0.0 0.00 0.00 0.00 95
20260508141624 54 305 0.0 0.0 0.00 0.00 0.00 95
20260508141422 54 305 0.0 0.0 0.00 0.00 0.00 95
20260508141219 54 305 0.0 0.0 0.00 0.00 0.00 95
20260508141018 54 305 0.0 0.0 0.00 0.00 0.00 95
20260508140816 54 305 0.0 0.0 0.00 0.00 0.00 95
20260508140614 54 305 0.0 0.0 0.00 0.00 0.00 95
20260508140412 54 305 0.0 0.0 0.00 0.00 0.00 95
20260508140210 54 305 0.0 0.0 0.00 0.00 0.00 95
20260508140007 53 305 0.0 0.0 0.00 0.00 0.00 95
20260508135807 53 305 0.0 0.0 0.00 0.00 0.00 95
20260508135605 53 305 0.0 0.0 0.00 0.00 0.00 95
20260508135403 53 305 0.0 0.0 0.00 0.00 0.00 95
20260508135201 53 305 0.0 0.0 0.00 0.00 0.00 95
20260508134959 53 305 0.0 0.0 0.00 0.00 0.00 95
20260508134757 53 305 0.0 0.0 0.00 0.00 0.00 94
20260508134555 53 305 0.0 0.0 0.00 0.00 0.00 94
20260508134354 53 305 0.0 0.0 0.00 0.00 0.00 94
20260508134152 53 305 0.0 0.0 0.00 0.00 0.00 94
20260508133748 53 305 0.0 0.0 0.00 0.00 0.00 95
20260508133545 53 305 0.0 0.0 0.00 0.00 0.00 95
20260508133344 53 305 0.0 0.0 0.00 0.00 0.00 95
20260508133142 53 305 0.0 0.0 0.00 0.00 0.00 95
20260508132940 53 305 0.0 0.0 0.00 0.00 0.00 95
20260508132738 53 305 0.0 0.0 0.00 0.00 0.00 95
20260508132536 53 305 0.0 0.0 0.00 0.00 0.00 94
20260508132334 53 305 0.0 0.0 0.00 0.00 0.00 94
20260508132131 53 305 0.0 0.0 0.00 0.00 0.00 94
20260508131729 53 305 0.0 0.0 0.00 0.00 0.00 94
20260508131526 53 305 0.0 0.0 0.00 0.00 0.00 95
20260508131327 53 305 0.0 0.0 0.00 0.00 0.00 94
20260508131325 53 305 0.0 0.0 0.00 0.00 0.00 95
20260508131123 53 305 0.0 0.0 0.00 0.00 0.00 94
20260508130921 53 305 0.0 0.0 0.00 0.00 0.00 94
20260508130719 53 305 0.0 0.0 0.00 0.00 0.00 94
20260508130517 53 305 0.0 0.0 0.00 0.00 0.00 94
20260508130316 53 305 0.0 0.0 0.00 0.00 0.00 94
20260508125911 53 305 0.0 0.0 0.00 0.00 0.00 94
20260508125708 53 305 0.0 0.0 0.00 0.00 0.00 94
20260508125508 53 305 0.0 0.0 0.00 0.00 0.00 94
20260508124902 53 305 0.0 0.0 0.00 0.00 0.00 94
20260508124700 53 305 0.0 0.0 0.00 0.00 0.00 94
20260508124458 53 305 0.0 0.0 0.00 0.00 0.00 94
20260508124256 53 305 0.0 0.0 0.00 0.00 0.00 94
20260508124208 53 305 0.0 0.0 0.00 0.00 0.00 94
20260508124055 53 305 0.0 0.0 0.00 0.00 0.00 94
20260508123852 53 305 0.0 0.0 0.00 0.00 0.00 94
20260508123651 53 305 0.0 0.0 0.00 0.00 0.00 94
20260508123449 53 305 0.0 0.0 0.00 0.00 0.00 94
20260508123247 53 305 0.0 0.0 0.00 0.00 0.00 94
20260508123045 53 305 0.0 0.0 0.00 0.00 0.00 94
20260508122641 53 305 0.0 0.0 0.00 0.00 0.00 94
20260508122237 54 305 0.0 0.0 0.00 0.00 0.00 94
20260508122036 53 305 0.0 0.0 0.00 0.00 0.00 94
20260508121834 53 305 0.0 0.0 0.00 0.00 0.00 94
20260508121632 53 305 0.0 0.0 0.00 0.00 0.00 94
20260508121430 53 305 0.0 0.0 0.00 0.00 0.00 94
20260508121228 53 305 0.0 0.0 0.00 0.00 0.00 94
20260508121026 53 305 0.0 0.0 0.00 0.00 0.00 94
20260508120824 53 305 0.0 0.0 0.00 0.00 0.00 94
20260508120622 53 305 0.0 0.0 0.00 0.00 0.00 94
20260508120420 53 305 0.0 0.0 0.00 0.00 0.00 94
20260508120218 53 305 0.0 0.0 0.00 0.00 0.00 94
20260508120015 53 305 0.0 0.0 0.00 0.00 0.00 94
20260508115814 53 305 0.0 0.0 0.00 0.00 0.00 94
20260508115613 53 305 0.0 0.0 0.00 0.00 0.00 94
20260508115410 53 305 0.0 0.0 0.00 0.00 0.00 94
20260508115208 53 305 0.0 0.0 0.00 0.00 0.00 93
20260508115007 53 305 0.0 0.0 0.00 0.00 0.00 93
20260508114805 54 305 0.0 0.0 0.00 0.00 0.00 93
20260508114603 54 305 0.0 0.0 0.00 0.00 0.00 93
20260508114401 54 305 0.0 0.0 0.00 0.00 0.00 93
20260508114159 54 305 0.0 0.0 0.00 0.00 0.00 93
20260508113957 54 305 0.0 0.0 0.00 0.00 0.00 93
20260508113553 54 305 0.0 0.0 0.00 0.00 0.00 93
20260508113355 54 305 0.0 0.0 0.00 0.00 0.00 93
20260508113149 54 305 0.0 0.0 0.00 0.00 0.00 93
20260508112948 54 305 0.0 0.0 0.00 0.00 0.00 93
20260508112746 54 305 0.0 0.0 0.00 0.00 0.00 93
20260508112544 54 305 0.0 0.0 0.00 0.00 0.00 93
20260508112342 54 305 0.0 0.0 0.00 0.00 0.00 93
20260508112140 54 305 0.0 0.0 0.00 0.00 0.00 93
20260508111736 54 305 0.0 0.0 0.00 0.00 0.00 93
20260508111332 54 305 0.0 0.0 0.00 0.00 0.00 93
20260508111131 54 305 0.0 0.0 0.00 0.00 0.00 93
20260508110929 54 305 0.0 0.0 0.00 0.00 0.00 93
20260508110727 54 305 0.0 0.0 0.00 0.00 0.00 93
20260508110524 54 305 0.0 0.0 0.00 0.00 0.00 93
20260508110323 54 305 0.0 0.0 0.00 0.00 0.00 93
20260508110121 54 305 0.0 0.0 0.00 0.00 0.00 93
20260508105919 54 305 0.0 0.0 0.00 0.00 0.00 92
20260508105719 54 305 0.0 0.0 0.00 0.00 0.00 92
20260508105515 54 305 0.0 0.0 0.00 0.00 0.00 92
20260508105112 54 305 0.0 0.0 0.00 0.00 0.00 92
20260508104910 54 305 0.0 0.0 0.00 0.00 0.00 92
20260508104709 54 305 0.0 0.0 0.00 0.00 0.00 92
20260508104506 54 305 0.0 0.0 0.00 0.00 0.00 92
20260508104304 54 305 0.0 0.0 0.00 0.00 0.00 92
20260508103900 54 305 0.0 0.0 0.00 0.00 0.00 92
20260508103658 54 305 0.0 0.0 0.00 0.00 0.00 92
20260508103456 55 305 0.0 0.0 0.00 0.00 0.00 92
20260508103254 55 305 0.0 0.0 0.00 0.00 0.00 92
20260508103052 55 305 0.0 0.0 0.00 0.00 0.00 92
20260508102850 55 305 0.0 0.0 0.00 0.00 0.00 92
20260508102446 55 305 0.0 0.0 0.00 0.00 0.00 92
20260508102244 55 305 0.0 0.0 0.00 0.00 0.00 92
20260508102043 55 305 0.0 0.0 0.00 0.00 0.00 92
20260508101841 55 305 0.0 0.0 0.00 0.00 0.00 92
20260508101639 55 305 0.0 0.0 0.00 0.00 0.00 92
20260508101437 55 305 0.0 0.0 0.00 0.00 0.00 92
20260508101235 55 305 0.0 0.0 0.00 0.00 0.00 91
20260508100428 55 305 0.0 0.0 0.00 0.00 0.00 91
20260508100226 55 305 0.0 0.0 0.00 0.00 0.00 91
20260508100024 55 305 0.0 0.0 0.00 0.00 0.00 91
20260508095620 55 305 0.0 0.0 0.00 0.00 0.00 91
20260508095419 55 305 0.0 0.0 0.00 0.00 0.00 91
20260508095015 55 305 0.0 0.0 0.00 0.00 0.00 91
20260508094812 55 305 0.0 0.0 0.00 0.00 0.00 91
20260508094611 55 305 0.0 0.0 0.00 0.00 0.00 91
20260508094409 55 305 0.0 0.0 0.00 0.00 0.00 91
20260508093803 55 305 0.0 0.0 0.00 0.00 0.00 91
20260508093601 55 305 0.0 0.0 0.00 0.00 0.00 91
20260508093157 55 305 0.0 0.0 0.00 0.00 0.00 90
20260508092955 55 305 0.0 0.0 0.00 0.00 0.00 90
20260508092753 55 305 0.0 0.0 0.00 0.00 0.00 90
20260508092551 55 305 0.0 0.0 0.00 0.00 0.00 90
20260508092147 55 305 0.0 0.0 0.00 0.00 0.00 90
20260508091542 56 305 0.0 0.0 0.00 0.00 0.00 90
20260508091338 56 305 0.0 0.0 0.00 0.00 0.00 89
20260508091138 56 305 0.0 0.0 0.00 0.00 0.00 90
20260508090936 56 305 0.0 0.0 0.00 0.00 0.00 90
20260508090734 56 305 0.0 0.0 0.00 0.00 0.00 89
20260508090533 56 305 0.0 0.0 0.00 0.00 0.00 89
20260508090331 56 305 0.0 0.0 0.00 0.00 0.00 89
20260508090127 56 305 0.0 0.9 0.00 0.00 0.00 89
20260508085927 56 305 0.0 0.9 0.00 0.00 0.00 89
20260508085725 56 305 0.0 2.6 0.00 0.00 0.00 90
20260508085523 56 305 0.0 2.6 0.00 0.00 0.00 90
20260508085319 56 299 0.9 2.6 0.00 0.00 0.00 90
20260508085119 56 265 0.0 5.2 0.00 0.00 0.00 90
20260508084917 56 265 0.0 5.2 0.00 0.00 0.00 90
20260508084715 56 279 3.5 0.0 0.00 0.00 0.00 90
20260508084514 56 257 0.0 0.0 0.00 0.00 0.00 90
20260508084311 56 257 0.0 0.0 0.00 0.00 0.00 89
20260508084110 56 257 0.0 0.0 0.00 0.00 0.00 89
20260508083908 56 257 0.0 0.0 0.00 0.00 0.00 89
20260508083705 56 257 0.0 0.0 0.00 0.00 0.00 89
20260508082900 56 257 0.0 3.5 0.00 0.00 0.00 89
20260508082656 56 286 1.7 0.0 0.00 0.00 0.00 89
20260508082455 56 164 0.0 0.0 0.00 0.00 0.00 89
20260508082252 56 164 0.0 0.0 0.00 0.00 0.00 88
20260508082051 56 164 0.0 0.0 0.00 0.00 0.00 88
20260508081849 56 164 0.0 0.0 0.00 0.00 0.00 88
20260508081647 56 164 0.0 0.0 0.00 0.00 0.00 88
20260508081445 57 164 0.0 0.0 0.00 0.00 0.00 88
20260508081243 57 164 0.0 0.0 0.00 0.00 0.00 88
20260508081041 57 164 0.0 0.0 0.00 0.00 0.00 88
20260508080839 57 164 0.0 0.0 0.00 0.00 0.00 88
20260508080233 57 164 0.0 0.0 0.00 0.00 0.00 87
20260508080032 57 164 0.0 0.0 0.00 0.00 0.00 87
20260508075830 57 164 0.0 0.0 0.00 0.00 0.00 87
20260508075628 57 164 0.0 0.0 0.00 0.00 0.00 87
20260508075426 57 164 0.0 0.0 0.00 0.00 0.00 87
20260508075021 57 164 0.0 0.0 0.00 0.00 0.00 87
20260508074618 57 164 0.0 0.0 0.00 0.00 0.00 87
20260508074417 57 164 0.0 0.0 0.00 0.00 0.00 87
20260508074013 57 164 0.0 0.0 0.00 0.00 0.00 87
20260508073609 57 164 0.0 0.0 0.00 0.00 0.00 87
20260508073407 57 164 0.0 0.0 0.00 0.00 0.00 87
20260508073205 57 164 0.0 0.0 0.00 0.00 0.00 87
20260508073003 57 164 0.0 0.0 0.00 0.00 0.00 87
20260508072802 57 164 0.0 0.0 0.00 0.00 0.00 87
20260508072557 57 164 0.0 0.0 0.00 0.00 0.00 87
20260508072357 57 164 0.0 0.0 0.00 0.00 0.00 87
20260508072155 57 164 0.0 0.0 0.00 0.00 0.00 87
20260508071954 57 164 0.0 0.0 0.00 0.00 0.00 87
20260508071752 57 164 0.0 0.9 0.00 0.00 0.00 87
20260508071549 57 164 0.0 0.9 0.00 0.00 0.00 87
20260508071349 57 164 0.0 0.9 0.00 0.00 0.00 87
20260508071144 57 164 0.0 0.0 0.00 0.00 0.00 87
20260508070944 57 288 0.0 0.0 0.00 0.00 0.00 87
20260508070742 57 288 0.0 0.0 0.00 0.00 0.00 87
20260508070540 57 288 0.0 0.0 0.00 0.00 0.00 86
20260508070338 57 288 0.0 0.0 0.00 0.00 0.00 87
20260508070136 57 288 0.0 0.0 0.00 0.00 0.00 87
20260508065934 57 288 0.0 0.0 0.00 0.00 0.00 86
20260508065732 57 288 0.0 0.0 0.00 0.00 0.00 86
20260508065530 57 288 0.0 0.0 0.00 0.00 0.00 86
20260508065329 57 288 0.0 0.0 0.00 0.00 0.00 86
20260508065127 58 288 0.0 0.0 0.00 0.00 0.00 86
20260508064925 58 288 0.0 0.0 0.00 0.00 0.00 86
20260508064723 58 288 0.0 0.0 0.00 0.00 0.00 86
20260508064319 58 288 0.0 0.0 0.00 0.00 0.00 85
20260508063916 58 288 0.0 0.0 0.00 0.00 0.00 85
20260508063714 58 288 0.0 0.0 0.00 0.00 0.00 85
20260508063514 58 288 0.0 0.0 0.00 0.00 0.00 85
20260508063309 58 288 0.0 0.0 0.00 0.00 0.00 84
20260508063107 58 288 0.0 0.0 0.00 0.00 0.00 84
20260508062704 58 288 0.0 0.0 0.00 0.00 0.00 84
20260508062502 58 288 0.0 0.0 0.00 0.00 0.00 84
20260508062300 59 288 0.0 0.0 0.00 0.00 0.00 84
20260508062058 59 288 0.0 0.0 0.00 0.00 0.00 84
20260508061857 59 288 0.0 0.0 0.00 0.00 0.00 84
20260508061653 59 288 0.0 0.0 0.00 0.00 0.00 84
20260508061452 59 288 0.0 0.0 0.00 0.00 0.00 84
20260508061251 59 288 0.0 0.0 0.00 0.00 0.00 84
20260508061049 59 288 0.0 0.0 0.00 0.00 0.00 84
20260508060847 59 288 0.0 0.0 0.00 0.00 0.00 84
20260508060443 59 288 0.0 0.0 0.00 0.00 0.00 84
20260508060241 59 288 0.0 0.0 0.00 0.00 0.00 84
20260508060039 59 288 0.0 0.0 0.00 0.00 0.00 83
20260508055837 59 288 0.0 0.0 0.00 0.00 0.00 83
20260508055635 59 288 0.0 0.0 0.00 0.00 0.00 83
20260508055232 59 288 0.0 1.7 0.00 0.00 0.00 83
20260508055030 59 288 0.0 1.7 0.00 0.00 0.00 83
20260508054828 59 288 0.0 1.7 0.00 0.00 0.00 83
20260508054626 59 302 0.9 0.0 0.00 0.00 0.00 84
20260508054424 59 286 0.0 0.0 0.00 0.00 0.00 84
20260508054222 59 286 0.0 0.0 0.00 0.00 0.00 84
20260508054020 59 286 0.0 0.0 0.00 0.00 0.00 84
20260508053820 59 286 0.0 3.5 0.00 0.00 0.00 83
20260508053617 59 286 0.0 3.5 0.00 0.00 0.00 83
20260508053414 59 286 0.0 3.5 0.00 0.00 0.00 83
20260508053011 60 302 3.5 2.6 0.00 0.00 0.00 83
20260508052809 60 296 2.6 1.7 0.00 0.00 0.00 83
20260508052605 60 298 0.9 1.7 0.00 0.00 0.00 81
20260508052203 60 286 0.0 0.0 0.00 0.00 0.00 81
20260508052000 60 286 0.0 0.0 0.00 0.00 0.00 81
20260508051759 60 286 0.0 0.0 0.00 0.00 0.00 81
20260508051558 60 286 0.0 0.0 0.00 0.00 0.00 80
20260508051355 60 286 0.0 0.0 0.00 0.00 0.00 80
20260508051154 61 286 0.0 0.0 0.00 0.00 0.00 80
20260508050750 61 286 0.0 0.0 0.00 0.00 0.00 80
20260508050547 61 286 0.0 0.0 0.00 0.00 0.00 80
20260508050346 61 286 0.0 0.0 0.00 0.00 0.00 80
20260508045942 61 286 0.0 0.0 0.00 0.00 0.00 80
20260508045741 61 286 0.0 0.0 0.00 0.00 0.00 79
20260508045336 61 286 0.0 0.0 0.00 0.00 0.00 80
20260508045134 61 286 0.0 0.0 0.00 0.00 0.00 79
20260508044729 61 286 0.0 0.0 0.00 0.00 0.00 79
20260508044327 62 286 0.0 0.0 0.00 0.00 0.00 78
20260508043923 62 286 0.0 0.0 0.00 0.00 0.00 78
20260508043721 62 286 0.0 0.0 0.00 0.00 0.00 78
20260508043519 62 286 0.0 0.0 0.00 0.00 0.00 78
20260508043318 62 286 0.0 0.0 0.00 0.00 0.00 76
20260508043115 62 286 0.0 0.0 0.00 0.00 0.00 76
20260508042914 62 286 0.0 0.0 0.00 0.00 0.00 76
20260508042712 62 286 0.0 0.0 0.00 0.00 0.00 75
20260508042308 63 286 0.0 0.0 0.00 0.00 0.00 75
20260508042107 63 286 0.0 0.0 0.00 0.00 0.00 75
20260508041904 63 286 0.0 0.0 0.00 0.00 0.00 75
20260508041702 63 286 0.0 0.0 0.00 0.00 0.00 75
20260508041500 63 286 0.0 0.0 0.00 0.00 0.00 75
20260508041258 63 286 0.0 0.0 0.00 0.00 0.00 75
20260508041056 63 286 0.0 0.0 0.00 0.00 0.00 75
20260508040854 63 286 0.0 0.0 0.00 0.00 0.00 75
20260508040652 63 286 0.0 1.7 0.00 0.00 0.00 75
20260508040451 63 286 0.0 1.7 0.00 0.00 0.00 75
20260508040248 63 286 0.0 0.9 0.00 0.00 0.00 75
20260508035845 63 295 1.7 0.9 0.00 0.00 0.00 74
20260508035643 63 272 0.0 1.7 0.00 0.00 0.00 74
20260508035441 64 272 0.0 1.7 0.00 0.00 0.00 74
20260508035239 64 272 0.0 0.0 0.00 0.00 0.00 74
20260508034634 64 255 0.0 0.0 0.00 0.00 0.00 74
20260508034230 64 255 0.0 1.7 0.00 0.00 0.00 73
20260508034028 64 255 0.0 1.7 0.00 0.00 0.00 73
20260508033825 64 255 0.0 1.7 0.00 0.00 0.00 73
20260508033421 64 289 0.9 1.7 0.00 0.00 0.00 73
20260508033220 64 278 0.9 2.6 0.00 0.00 0.00 73
20260508033018 64 265 0.0 2.6 0.00 0.00 0.00 73
20260508032816 64 265 0.0 3.5 0.00 0.00 0.00 72
20260508032615 65 265 0.0 3.5 0.00 0.00 0.00 72
20260508032411 65 272 0.9 3.5 0.00 0.00 0.00 72
20260508032210 65 248 0.0 3.5 0.00 0.00 0.00 72
20260508031807 65 264 0.0 0.0 0.00 0.00 0.00 71
20260508031605 65 253 0.0 0.0 0.00 0.00 0.00 71
20260508031403 65 258 0.0 0.0 0.00 0.00 0.00 70
20260508031204 65 258 0.0 0.0 0.00 0.00 0.00 70
20260508030959 65 258 0.0 0.0 0.00 0.00 0.00 69
20260508030757 66 258 0.0 0.0 0.00 0.00 0.00 70
20260508030555 66 258 0.0 0.0 0.00 0.00 0.00 70
20260508030354 66 258 0.0 0.0 0.00 0.00 0.00 69
20260508030152 66 258 0.0 3.5 0.00 0.00 0.00 69
20260508025948 66 258 0.0 3.5 0.00 0.00 0.00 69
20260508025748 66 258 0.0 4.3 0.00 0.00 0.00 69
20260508025344 66 279 2.6 4.3 0.00 0.00 0.00 69
20260508024740 67 285 2.6 4.3 0.00 0.00 0.00 68
20260508024132 67 277 3.5 5.2 0.00 0.00 0.00 67
20260508023729 68 278 2.6 4.3 0.00 0.00 0.00 67
20260508023527 68 272 3.5 4.3 0.00 0.00 0.00 66
20260508023325 68 275 3.5 4.3 0.00 0.00 0.00 66
20260508023123 68 293 1.7 5.2 0.00 0.00 0.00 65
20260508022921 68 278 0.0 5.2 0.00 0.00 0.00 65
20260508022719 68 278 2.6 6.1 0.00 0.00 0.00 65
20260508022519 68 289 2.6 6.1 0.00 0.00 0.00 65
20260508022114 69 282 4.3 5.2 0.00 0.00 0.00 64
20260508021911 69 271 2.6 5.2 0.00 0.00 0.00 63
20260508021709 69 271 2.6 7.0 0.00 0.00 0.00 63
20260508021507 69 279 2.6 7.0 0.00 0.00 0.00 63
20260508021306 69 262 3.5 6.1 0.00 0.00 0.00 63
20260508021104 69 270 3.5 6.1 0.00 0.00 0.00 63
20260508020902 69 271 5.2 6.1 0.00 0.00 0.00 62
20260508020700 70 278 3.5 5.2 0.00 0.00 0.00 62
20260508020458 70 291 3.5 5.2 0.00 0.00 0.00 61
20260508015852 70 292 1.7 7.0 0.00 0.00 0.00 61
20260508015650 70 268 3.5 6.1 0.00 0.00 0.00 61
20260508015448 70 272 2.6 6.1 0.00 0.00 0.00 61
20260508015044 70 267 3.5 7.8 0.00 0.00 0.00 60
20260508014842 70 250 3.5 7.8 0.00 0.00 0.00 61
20260508014438 70 293 2.6 7.0 0.00 0.00 0.00 60
20260508014236 70 285 4.3 7.8 0.00 0.00 0.00 59
20260508014034 71 274 5.2 7.8 0.00 0.00 0.00 59
20260508013832 71 271 5.2 7.8 0.00 0.00 0.00 59
20260508013630 71 281 3.5 6.1 0.00 0.00 0.00 58
20260508013429 71 296 0.9 6.1 0.00 0.00 0.00 58
20260508013227 71 265 6.1 7.0 0.00 0.00 0.00 58
20260508013025 71 267 3.5 7.0 0.00 0.00 0.00 58
20260508012823 71 306 0.9 7.0 0.00 0.00 0.00 58
20260508012418 71 277 3.5 7.8 0.00 0.00 0.00 58
20260508012217 72 265 5.2 7.0 0.00 0.00 0.00 57
20260508012015 72 260 4.3 7.0 0.00 0.00 0.00 58
20260508011813 72 293 3.5 7.0 0.00 0.00 0.00 58
20260508011611 72 277 3.5 7.0 0.00 0.00 0.00 58
20260508011409 71 279 6.1 7.0 0.00 0.00 0.00 58
20260508011207 71 282 4.3 8.7 0.00 0.00 0.00 57
20260508011004 72 285 3.5 8.7 0.00 0.00 0.00 57
20260508010601 71 278 4.3 8.7 0.00 0.00 0.00 58
20260508010359 71 293 4.3 8.7 0.00 0.00 0.00 58
20260508010157 71 286 3.5 8.7 0.00 0.00 0.00 58
20260508005955 71 279 5.2 8.7 0.00 0.00 0.00 58
20260508005551 72 289 5.2 9.6 0.00 0.00 0.00 56
20260508004945 72 267 5.2 8.7 0.00 0.00 0.00 57
20260508004743 72 261 7.0 9.6 0.00 0.00 0.00 58
20260508004542 71 279 6.1 9.6 0.00 0.00 0.00 57
20260508004339 72 303 2.6 9.6 0.00 0.00 0.00 56
20260508004138 72 258 7.0 9.6 0.00 0.00 0.00 56
20260508003935 72 267 3.5 9.6 0.00 0.00 0.00 55
20260508003734 72 261 5.2 9.6 0.00 0.00 0.00 55
20260508003531 72 243 6.1 9.6 0.00 0.00 0.00 56
20260508003330 72 258 7.0 9.6 0.00 0.00 0.00 56
20260508002924 73 288 5.2 10.4 0.00 0.00 0.00 55
20260508002722 73 279 7.0 9.6 0.00 0.00 0.00 55
20260508002320 73 267 6.1 11.3 0.00 0.00 0.00 55
20260508002117 73 264 7.8 11.3 0.00 0.00 0.00 55
20260508001916 72 270 7.8 11.3 0.00 0.00 0.00 54
20260508001714 73 274 6.1 10.4 0.00 0.00 0.00 53
20260508001511 73 302 1.7 10.4 0.00 0.00 0.00 53
20260508001108 74 274 7.8 10.4 0.00 0.00 0.00 53
20260508000300 74 272 6.1 10.4 0.00 0.00 0.00 53
20260508000056 73 286 6.1 10.4 0.00 0.00 0.00 52
20260507235854 73 271 7.0 10.4 0.00 0.00 0.00 53
20260507235654 73 264 10.4 11.3 0.00 0.00 0.00 52
20260507235251 74 278 6.1 9.6 0.00 0.00 0.00 52
20260507235049 74 282 7.8 9.6 0.00 0.00 0.00 53
20260507234846 73 271 7.8 9.6 0.00 0.00 0.00 52
20260507234645 74 265 8.7 11.3 0.00 0.00 0.00 52
20260507234443 74 261 4.3 11.3 0.00 0.00 0.00 52
20260507234240 74 265 6.1 11.3 0.00 0.00 0.00 52
20260507233838 74 264 8.7 11.3 0.00 0.00 0.00 53
20260507233635 74 261 9.6 11.3 0.00 0.00 0.00 53
20260507233432 74 262 10.4 11.3 0.00 0.00 0.00 51
20260507233029 74 265 7.8 11.3 0.00 0.00 0.00 52
20260507232836 74 262 8.7 11.3 0.00 0.00 0.00 52
20260507232827 74 262 8.7 11.3 0.00 0.00 0.00 52
20260507232625 74 261 8.7 12.2 0.00 0.00 0.00 51
20260507232221 74 298 7.0 10.4 0.00 0.00 0.00 52
20260507232019 74 282 7.8 10.4 0.00 0.00 0.00 52
20260507231817 73 268 5.2 11.3 0.00 0.00 0.00 52
20260507231413 74 272 4.3 11.3 0.00 0.00 0.00 52
20260507231009 74 254 8.7 11.3 0.00 0.00 0.00 53
20260507230806 74 258 8.7 11.3 0.00 0.00 0.00 52
20260507230403 73 248 7.0 11.3 0.00 0.00 0.00 52
20260507230000 74 264 6.1 13.0 0.00 0.00 0.00 53
20260507225758 73 285 7.8 12.2 0.00 0.00 0.00 52
20260507225556 73 261 9.6 12.2 0.00 0.00 0.00 53
20260507225354 73 282 10.4 12.2 0.00 0.00 0.00 53
20260507225152 74 277 7.8 12.2 0.00 0.00 0.00 51
20260507224950 74 278 6.1 12.2 0.00 0.00 0.00 51
20260507224748 74 277 6.1 11.3 0.00 0.00 0.00 51
20260507224142 74 248 8.7 13.0 0.00 0.00 0.00 52
20260507223536 74 262 7.8 12.2 0.00 0.00 0.00 50
20260507223334 75 268 7.0 12.2 0.00 0.00 0.00 50
20260507222930 75 258 8.7 11.3 0.00 0.00 0.00 51
20260507222728 74 279 2.6 9.6 0.00 0.00 0.00 51
20260507222527 75 275 7.0 9.6 0.00 0.00 0.00 51
20260507222123 75 264 6.1 13.9 0.00 0.00 0.00 50
20260507221921 74 275 4.3 13.9 0.00 0.00 0.00 51
20260507221719 74 261 7.8 13.0 0.00 0.00 0.00 52
20260507221516 74 295 11.3 13.0 0.00 0.00 0.00 51
20260507221315 74 282 8.7 13.9 0.00 0.00 0.00 51
20260507220709 74 271 7.8 13.0 0.00 0.00 0.00 52
20260507220505 74 260 10.4 13.0 0.00 0.00 0.00 51
20260507220304 75 257 7.8 13.0 0.00 0.00 0.00 51
20260507215901 75 240 9.6 13.0 0.00 0.00 0.00 51
20260507215659 74 275 7.0 14.8 0.00 0.00 0.00 51
20260507215457 74 240 3.5 14.8 0.00 0.00 0.00 52
20260507215258 74 257 7.0 13.0 0.00 0.00 0.00 51
20260507215255 74 257 7.0 13.0 0.00 0.00 0.00 51
20260507215053 74 268 10.4 13.0 0.00 0.00 0.00 51
20260507214851 75 262 7.0 13.0 0.00 0.00 0.00 51
20260507214454 74 260 7.0 14.8 0.00 0.00 0.00 51
20260507214244 74 261 5.2 13.0 0.00 0.00 0.00 52
20260507214043 74 270 12.2 13.0 0.00 0.00 0.00 52
20260507213840 74 257 8.7 13.0 0.00 0.00 0.00 52
20260507213237 74 243 7.8 16.5 0.00 0.00 0.00 53
20260507212831 75 265 7.8 16.5 0.00 0.00 0.00 52
20260507212630 74 261 8.7 15.6 0.00 0.00 0.00 52
20260507211821 75 254 12.2 13.9 0.00 0.00 0.00 51
20260507211619 75 271 8.7 13.0 0.00 0.00 0.00 52
20260507211416 74 254 5.2 13.0 0.00 0.00 0.00 52
20260507211215 75 264 7.0 15.6 0.00 0.00 0.00 51
20260507211015 75 302 4.3 15.6 0.00 0.00 0.00 53
20260507210407 74 258 7.8 13.0 0.00 0.00 0.00 52
20260507210004 75 265 10.4 12.2 0.00 0.00 0.00 50
20260507205600 76 234 10.4 13.9 0.00 0.00 0.00 50
20260507205359 76 246 7.0 13.9 0.00 0.00 0.00 51
20260507205156 75 237 2.6 13.0 0.00 0.00 0.00 52
20260507204954 75 277 11.3 13.0 0.00 0.00 0.00 51
20260507204752 75 247 9.6 13.9 0.00 0.00 0.00 52
20260507204550 75 282 7.8 13.9 0.00 0.00 0.00 51
20260507203944 76 278 6.1 12.2 0.00 0.00 0.00 50
20260507202532 75 268 12.2 12.2 0.00 0.00 0.00 51
20260507202127 75 267 10.4 14.8 0.00 0.00 0.00 51
20260507201521 76 246 8.7 12.2 0.00 0.00 0.00 51
20260507201319 76 281 3.5 13.0 0.00 0.00 0.00 52
20260507201115 75 289 7.8 13.0 0.00 0.00 0.00 52
20260507200915 76 274 7.8 13.0 0.00 0.00 0.00 52
20260507200711 75 260 6.1 14.8 0.00 0.00 0.00 51
20260507200511 76 264 8.7 14.8 0.00 0.00 0.00 51
20260507200309 75 253 7.8 13.9 0.00 0.00 0.00 51
20260507200107 76 272 8.7 13.9 0.00 0.00 0.00 52
20260507195903 76 257 9.6 13.9 0.00 0.00 0.00 51
20260507195703 76 254 6.1 13.9 0.00 0.00 0.00 51
20260507195501 75 250 7.0 13.9 0.00 0.00 0.00 51
20260507195257 76 229 8.7 13.9 0.00 0.00 0.00 52
20260507194856 76 286 11.3 13.9 0.00 0.00 0.00 51
20260507194654 76 261 7.0 12.2 0.00 0.00 0.00 51
20260507194451 76 258 9.6 12.2 0.00 0.00 0.00 49
20260507194248 76 240 7.0 12.2 0.00 0.00 0.00 50
20260507194047 76 270 7.8 12.2 0.00 0.00 0.00 51
20260507193846 76 244 8.7 12.2 0.00 0.00 0.00 50
20260507193441 76 298 6.1 10.4 0.00 0.00 0.00 49
20260507193240 77 262 4.3 12.2 0.00 0.00 0.00 50
20260507192834 76 275 7.0 12.2 0.00 0.00 0.00 51
20260507192633 76 257 10.4 11.3 0.00 0.00 0.00 48
20260507192436 77 309 3.5 11.3 0.00 0.00 0.00 49
20260507192230 76 261 5.2 11.3 0.00 0.00 0.00 49
20260507192028 76 284 6.1 11.3 0.00 0.00 0.00 49
20260507191826 76 237 3.5 11.3 0.00 0.00 0.00 50
20260507191622 75 260 6.1 13.0 0.00 0.00 0.00 50
20260507191420 75 274 6.1 13.0 0.00 0.00 0.00 50
20260507191220 75 268 10.4 9.6 0.00 0.00 0.00 50
20260507191018 76 267 9.6 9.6 0.00 0.00 0.00 49
20260507190209 76 261 7.0 11.3 0.00 0.00 0.00 48
20260507190008 76 260 3.5 11.3 0.00 0.00 0.00 48
20260507185604 75 277 7.0 9.6 0.00 0.00 0.00 48
20260507185402 75 262 7.0 9.6 0.00 0.00 0.00 50
20260507185201 75 268 8.7 11.3 0.00 0.00 0.00 50
20260507184958 75 262 7.8 11.3 0.00 0.00 0.00 51
20260507184756 74 268 9.6 9.6 0.00 0.00 0.00 49
20260507184555 75 247 7.0 9.6 0.00 0.00 0.00 50
20260507184151 75 271 5.2 10.4 0.00 0.00 0.00 50
20260507183949 75 282 3.5 10.4 0.00 0.00 0.00 50
20260507183746 75 236 6.1 9.6 0.00 0.00 0.00 51
20260507183344 75 282 7.0 9.6 0.00 0.00 0.00 51
20260507183141 74 264 8.7 10.4 0.00 0.00 0.00 51
20260507182938 74 267 7.8 10.4 0.00 0.00 0.00 51
20260507182737 74 295 6.1 7.8 0.00 0.00 0.00 51
20260507182534 74 278 6.1 7.8 0.00 0.00 0.00 49
20260507182333 74 293 4.3 7.8 0.00 0.00 0.00 51
20260507182131 74 265 6.1 7.8 0.00 0.00 0.00 50
20260507181927 74 285 4.3 7.8 0.00 0.00 0.00 50
20260507181727 74 257 4.3 9.6 0.00 0.00 0.00 52
20260507181525 74 244 7.0 9.6 0.00 0.00 0.00 51
20260507181323 74 277 4.3 9.6 0.00 0.00 0.00 54
20260507181120 73 288 5.2 9.6 0.00 0.00 0.00 53
20260507180919 73 288 0.9 9.6 0.00 0.00 0.00 54
20260507180717 73 288 7.8 9.6 0.00 0.00 0.00 53
20260507180312 73 267 3.5 8.7 0.00 0.00 0.00 54
20260507180110 73 295 3.5 8.7 0.00 0.00 0.00 52
20260507175916 73 281 8.7 8.7 0.00 0.00 0.00 54
20260507175505 73 285 5.2 8.7 0.00 0.00 0.00 55
20260507175102 72 272 6.1 9.6 0.00 0.00 0.00 55
20260507174900 72 288 4.3 9.6 0.00 0.00 0.00 55
20260507174052 71 313 4.3 9.6 0.00 0.00 0.00 56
20260507173850 72 274 7.0 9.6 0.00 0.00 0.00 56
20260507173648 72 267 8.7 7.0 0.00 0.00 0.00 56
20260507173446 72 260 4.3 7.0 0.00 0.00 0.00 57
20260507173042 71 309 2.6 7.8 0.00 0.00 0.00 57
20260507172840 71 281 6.1 7.8 0.00 0.00 0.00 56
20260507172638 70 286 5.2 7.8 0.00 0.00 0.00 58
20260507172436 70 291 6.1 7.8 0.00 0.00 0.00 57
20260507172234 70 275 6.1 7.8 0.00 0.00 0.00 56
20260507171830 70 272 7.0 7.8 0.00 0.00 0.00 58
20260507171629 70 341 1.7 7.8 0.00 0.00 0.00 58
20260507171427 70 271 7.0 7.8 0.00 0.00 0.00 58
20260507171223 69 296 6.1 9.6 0.00 0.00 0.00 58
20260507170820 69 274 6.1 7.0 0.00 0.00 0.00 60